Home > Weather > Spartanburg > Past weeks

Flag for USA Weather for the Past 2 Weeks in Spartanburg, South Carolina, USA

Now
77 °F

Scattered clouds.


Feels Like: 79 °F
Forecast: 62 / 80 °F
Wind: 7 mph from East

Location: Spartanburg Memorial

Current Time: Apr 30, 2016 at 2:56:03 PM

Latest Report: Apr 30, 2016 at 2:15 PM


Visibility: 10 mi

Pressure: 30.03 "Hg

Humidity: 57%

Dew Point: 61 °F

Location of SpartanburgLocation

Historic Weather in Spartanburg — Graph

°F

Spartanburg Temperature Yesterday

Maximum temperature yesterday: 86 °F (at 2:55 PM)
Minimum temperature yesterday: 59 °F (at 2:15 AM)
Average temperature yesterday: 73 °F

High & Low Weather Summary for the Past Weeks

 TemperatureHumidityPressure
High86 °F (Apr 19, 2:55 PM)100% (Apr 22, 9:15 PM)30.44 "Hg (Apr 22, 9:15 PM)
Low43 °F (Apr 16, 6:35 AM)14% (Apr 16, 3:55 PM)29.80 "Hg (Apr 27, 4:55 PM)
Average66 °F53%30.08 "Hg
* Reported Apr 15 1:15 PM — Apr 30 1:35 PM, Spartanburg, Weather by CustomWeather, © 2016

Note: Actual official high and low records may vary slightly from our data, if they occured in-between our weather recording intervals... More about our weather records

Advertising

Spartanburg Weather History for the Previous 24 Hours

Scroll right to see more
 ConditionsComfort  
Time TempWeatherWind HumidityBarometerVisibility
1:35 PM
Sat, Apr 30
79 °FSunny.5 mph54%30.05 "Hg10 mi
1:15 PM77 °FSunny.No wind57%30.05 "Hg10 mi
12:55 PM77 °FScattered clouds.3 mph57%30.06 "Hg10 mi
12:35 PM75 °FScattered clouds.3 mph57%30.06 "Hg10 mi
12:15 PM75 °FScattered clouds.7 mph61%30.06 "Hg10 mi
11:55 AM73 °FSunny.5 mph65%30.06 "Hg10 mi
11:35 AM72 °FScattered clouds.8 mph65%30.07 "Hg10 mi
11:15 AM72 °FScattered clouds.7 mph65%30.07 "Hg10 mi
10:55 AM72 °FScattered clouds.8 mph65%30.07 "Hg10 mi
10:35 AM70 °FSunny.6 mph69%30.07 "Hg10 mi
10:15 AM68 °FSunny.8 mph73%30.06 "Hg10 mi
9:55 AM68 °FSunny.8 mph69%30.05 "Hg10 mi
9:35 AM68 °FSunny.7 mph64%30.04 "Hg10 mi
9:15 AM66 °FSunny.7 mph68%30.03 "Hg10 mi
8:55 AM64 °FSunny.9 mph73%30.03 "Hg10 mi
8:35 AM64 °FSunny.10 mph68%30.03 "Hg10 mi
8:15 AM63 °FSunny.8 mph68%30.02 "Hg10 mi
7:55 AM63 °FSunny.8 mph68%30.02 "Hg10 mi
7:35 AM63 °FClear.6 mph68%30.02 "Hg10 mi
7:15 AM63 °FClear.No wind68%30.00 "Hg10 mi
6:55 AM61 °FClear.3 mph72%29.98 "Hg10 mi
6:15 AM61 °FClear.7 mph72%29.97 "Hg10 mi
5:55 AM59 °FClear.7 mph77%29.97 "Hg10 mi
5:35 AM61 °FClear.3 mph68%29.98 "Hg10 mi
4:55 AM61 °FClear.3 mph72%29.97 "Hg10 mi
4:35 AM61 °FClear.No wind72%29.98 "Hg10 mi
4:15 AM63 °FClear.No wind68%29.98 "Hg10 mi
3:55 AM61 °FClear.No wind72%29.97 "Hg5 mi
2:55 AM66 °FClear.3 mph56%29.97 "Hg10 mi
2:35 AM68 °FClear.No wind46%29.98 "Hg10 mi
1:55 AM68 °FClear.No wind46%29.98 "Hg10 mi
1:15 AM72 °FClear.3 mph41%29.98 "Hg10 mi
12:55 AM72 °FPassing clouds.6 mph41%29.99 "Hg10 mi
12:35 AM72 °FPassing clouds.7 mph41%29.99 "Hg10 mi
11:55 PM
Fri, Apr 29
70 °FClear.3 mph57%29.98 "Hg10 mi
11:35 PM68 °FClear.No wind60%29.98 "Hg10 mi
11:15 PM68 °FClear.3 mph64%29.98 "Hg10 mi
10:35 PM70 °FClear.No wind60%29.97 "Hg10 mi
10:15 PM70 °FClear.No wind60%29.97 "Hg10 mi
9:55 PM70 °FClear.No wind60%29.97 "Hg10 mi
9:15 PM72 °FClear.No wind57%29.96 "Hg10 mi
8:55 PM72 °FSunny.No wind53%29.96 "Hg10 mi
8:35 PM73 °FSunny.No wind50%29.95 "Hg10 mi
7:55 PM77 °FSunny.3 mph42%29.95 "Hg10 mi
7:35 PM79 °FSunny.No wind39%29.94 "Hg10 mi
7:15 PM81 °FSunny.No wind34%29.93 "Hg10 mi
6:55 PM82 °FSunny.3 mph30%29.93 "Hg10 mi
6:35 PM84 °FSunny.7 mph31%29.93 "Hg10 mi
6:15 PM84 °FSunny.6 mph27%29.93 "Hg10 mi
5:55 PM84 °FSunny.5 mph27%29.93 "Hg10 mi
5:35 PM84 °FSunny.3 mph27%29.93 "Hg10 mi
5:15 PM84 °FSunny.5 mph27%29.93 "Hg7 mi
4:55 PM84 °FSunny.3 mph23%29.93 "Hg10 mi
4:35 PM84 °FSunny.3 mph23%29.93 "Hg10 mi
4:15 PM84 °FSunny.No wind22%29.94 "Hg10 mi
3:55 PM86 °FSunny.3 mph20%29.95 "Hg10 mi
3:35 PM84 °FSunny.No wind23%29.95 "Hg10 mi
3:15 PM84 °FSunny.7 mph23%29.96 "Hg10 mi
2:55 PM86 °FSunny.7 mph22%29.97 "Hg10 mi
2:35 PM84 °FSunny.8 mph23%29.97 "Hg10 mi
2:15 PM82 °FSunny.8 mph25%29.97 "Hg10 mi
Weather by CustomWeather, © 2016

See weather overviewHow to use our weather pages